コワル-ヴァーヴロヴァー彗星

134P/Kowal-Vavrova (2014)

English version
Home page
Updated on April 30, 2009

---------------------------------------------------------------------

・ プロフィール

・ 軌道要素

Perturbed ephemeris below is based on elements from MPC 31205. 

 Epoch = 2456800.50000 TT   T = 2456798.95701 TT
 Peri. =   18.58174         a =     6.2312829 AU
 Node  =  202.12237 J2000.0 e =     0.5873538
 Incl. =    4.34888         q =     2.5713154 AU

・ 星図

・ 光度変化

        m1 = 0 + 5 logΔ + 30 log r(t - 80)

---------------------------------------------------------------------

軌道要素はMinor Planet & Comet Ephemeris Serviceで計算したものです。
星図はステラナビゲータ Ver.8 (アストロアーツ) で作成したものです。
光度グラフはComet for Windowsで作成したものです。

---------------------------------------------------------------------

Copyright(C) Seiichi Yoshida (comet@aerith.net). All rights reserved.